EW3286 Weather Reports


Display with metric or nautical units.
time (UTC)temp
F
wind
direction
speed
MPH
gust
MPH
rain 1hr
in
rain 24hr
in
rain mn
in
humidity
%
barometer
mb
20260906074504 72 53 0.0 0.0 0.00 0.00 0.00 96 1013.2
20260906073001 73 25 0.0 0.0 0.00 0.00 0.00 96 1013.1
20260906071600 73 36 0.0 0.0 0.00 0.00 0.00 96 1013.2
20260906070059 73 44 0.0 0.0 0.00 0.00 0.00 96 1013.3
20260906064601 73 50 0.0 0.0 0.00 0.00 0.00 96 1013.4
20260906063057 73 57 0.0 0.0 0.00 0.00 0.00 96 1013.6
20260906061557 73 28 0.0 0.0 0.00 0.00 0.00 96 1013.6
20260906060049 73 26 0.0 0.0 0.00 0.00 0.00 96 1013.4
20260906054557 73 38 0.0 0.0 0.00 0.00 0.00 95 1013.3
20260906053043 73 29 0.0 0.0 0.00 0.00 0.00 95 1013.2
20260906051537 73 44 0.0 0.0 0.00 0.00 0.00 95 1013.2
20260906050039 73 55 0.0 0.0 0.00 0.00 0.00 95 1013.3
20260906044534 73 50 0.0 0.0 0.00 0.00 0.00 94 1013.3
20260906043034 73 50 0.0 0.0 0.00 0.00 0.00 94 1013.2
20260906041533 73 44 0.0 0.0 0.00 0.00 0.00 93 1013.3
20260906040039 74 46 0.0 0.0 0.00 0.00 0.00 93 1013.1
20260906034541 74 43 0.0 0.0 0.00 0.00 0.00 92 1013.1
20260906033032 74 44 0.0 0.0 0.00 0.00 0.00 91 1012.8
20260906031533 75 44 0.0 0.0 0.00 0.00 0.00 90 1012.9
20260906030031 75 45 0.0 0.0 0.00 0.00 0.00 90 1013.0
20260906024530 76 25 0.0 0.0 0.00 0.00 0.00 89 1013.1
20260906023030 76 21 0.0 0.0 0.00 0.00 0.00 88 1013.1
20260906021529 76 17 0.0 0.0 0.00 0.00 0.00 87 1012.9
20260906020130 76 41 0.0 0.0 0.00 0.00 0.00 86 1012.9
20260906014540 77 36 0.0 0.0 0.00 0.00 0.00 85 1012.6
20260906013030 77 36 0.0 0.0 0.00 0.00 0.00 84 1012.4
20260906011526 77 27 0.0 0.0 0.00 0.00 0.00 83 1012.7
20260906010026 78 44 0.0 0.0 0.00 0.00 0.00 81 1012.4
20260906004526 78 21 0.0 0.0 0.00 0.00 0.00 79 1011.9
20260906003025 79 54 0.0 0.0 0.00 0.00 0.00 77 1011.8
20260906001524 80 25 0.0 0.0 0.00 0.00 0.00 75 1011.7
20260906000024 81 36 0.0 0.0 0.00 0.00 0.00 73 1012.0
20260905234622 81 42 0.0 0.0 0.00 0.00 0.00 72 1011.9
20260905233032 81 34 0.0 0.0 0.00 0.00 0.00 70 1011.8
20260905231525 82 38 0.0 0.0 0.00 0.00 0.00 75 1011.5
20260905230020 82 355 0.0 0.0 0.00 0.00 0.00 74 1011.5
20260905224521 82 18 0.0 0.0 0.00 0.00 0.00 74 1011.4
20260905223018 82 40 0.0 0.0 0.00 0.00 0.00 73 1011.4
20260905221527 82 336 0.0 0.0 0.00 0.00 0.00 74 1011.7
20260905220011 82 9 0.0 0.0 0.00 0.00 0.00 74 1011.4
20260905214511 82 52 0.0 0.0 0.00 0.00 0.00 71 1011.4
20260905213006 83 51 0.0 0.0 0.00 0.00 0.00 71 1011.1
20260905211511 82 267 0.0 0.0 0.00 0.00 0.00 74 1011.0
20260905210005 82 40 0.0 0.0 0.00 0.00 0.00 71 1010.9
20260905204559 82 9 0.0 0.0 0.00 0.00 0.00 71 1010.8
20260905203101 82 40 0.0 0.0 0.00 0.00 0.00 65 1010.8
20260905201554 82 9 0.0 0.0 0.00 0.00 0.00 70 1010.7
20260905200054 83 25 0.0 0.0 0.00 0.00 0.00 65 1010.7
20260905194548 84 51 0.0 0.0 0.00 0.00 0.00 63 1010.7
20260905193104 84 5 0.0 0.0 0.00 0.00 0.00 58 1010.6
20260905191546 84 30 0.0 0.0 0.00 0.00 0.00 56 1010.9
20260905190046 85 47 0.0 0.0 0.00 0.00 0.00 57 1011.1
20260905184545 85 30 0.0 0.0 0.00 0.00 0.00 54 1011.2
20260905183049 85 38 0.0 0.0 0.00 0.00 0.00 53 1011.3
20260905181544 86 69 0.0 0.0 0.00 0.00 0.00 49 1011.2
20260905180040 85 55 0.0 0.0 0.00 0.00 0.00 53 1010.8
20260905174537 84 63 0.0 0.0 0.00 0.00 0.00 57 1010.8
20260905173033 83 78 0.0 0.0 0.00 0.00 0.00 59 1011.1
20260905171535 81 42 0.0 0.0 0.00 0.00 0.00 63 1011.3
20260905170025 79 61 0.0 0.0 0.00 0.00 0.00 70 1011.5
20260905164524 74 61 0.0 0.0 0.00 0.00 0.00 78 1011.5
20260905163015 73 53 0.0 0.0 0.00 0.00 0.00 79 1011.7
20260905161511 71 45 0.0 0.0 0.00 0.00 0.00 82 1011.7
20260905160015 69 55 0.0 0.0 0.00 0.00 0.00 85 1011.3
20260905154502 69 25 0.0 0.0 0.00 0.00 0.00 88 1012.6
20260905153059 67 11 0.0 0.0 0.00 0.00 0.00 90 1013.4
20260905151555 0 0.0 0.0 0.00 0.00 0.00 1015.7
20260905150050 0 0.0 0.0 0.00 0.00 0.00 1016.7
20260905144546 0 0.0 0.0 0.00 0.00 0.00 1016.7
20260905143041 0 0.0 0.0 0.00 0.00 0.00 1016.4
20260905141537 0 0.0 0.0 0.00 0.00 0.00 1016.7
20260905140035 0 0.0 0.0 0.00 0.00 0.00 1016.0
20260905134541 0 0.0 0.0 0.00 0.00 0.00 1015.5
20260905133024 72 186 0.0 0.0 0.00 0.00 0.00 97 1015.2
20260905131521 71 176 0.0 0.0 0.00 0.00 0.00 97 1015.2
20260905130018 71 192 0.0 0.0 0.00 0.00 0.00 97 1014.3
20260905124520 71 223 0.0 0.0 0.00 0.00 0.00 97 1013.8
20260905123013 71 257 0.0 0.0 0.00 0.00 0.00 97 1013.7
20260905121512 71 269 0.0 0.0 0.00 0.00 0.00 97 1013.6
20260905120017 71 269 0.0 0.0 0.00 0.00 0.00 97 1012.9
20260905114505 72 272 0.0 0.0 0.00 0.00 0.00 97 1012.6
20260905113002 72 338 0.0 0.0 0.00 0.00 0.00 97 1011.7
20260905111501 72 284 0.0 0.0 0.00 0.00 0.00 97 1012.1
20260905110100 72 311 0.0 0.0 0.00 0.00 0.00 97 1011.9
20260905104559 72 333 0.0 0.0 0.00 0.00 0.00 97 1012.1
20260905103059 72 320 0.0 0.0 0.00 0.00 0.00 97 1011.9
20260905101554 72 340 0.0 0.0 0.00 0.00 0.00 97 1011.0
20260905100057 72 342 0.0 0.0 0.00 0.00 0.00 97 1011.2
20260905094552 72 333 0.0 0.0 0.00 0.00 0.00 96 1011.1
20260905093054 72 313 0.0 0.0 0.00 0.00 0.00 96 1011.1
20260905091553 72 317 0.0 0.0 0.00 0.00 0.00 96 1010.9
20260905090048 72 319 0.0 0.0 0.00 0.00 0.00 96 1011.1
20260905084546 72 347 0.0 0.0 0.00 0.00 0.00 96 1010.8
20260905083045 73 345 0.0 0.0 0.00 0.00 0.00 96 1010.1
20260905081544 73 320 0.0 0.0 0.00 0.00 0.00 96 1010.5
20260905080046 73 10 0.0 0.0 0.00 0.00 0.00 96 1010.6